Wind_Speed
14 15 15 13 12 13 14 15 16 16 15 13 12 12 12 13 14 14 12 11 10 10 10 9 6 5 7 7 8 8 8 9 10 11 12 13 13 14 13 16 18 17 18 18 19 19 18
16 15 16 17 16 16 14 16 17 18 18 18 16 14 13 13 12 13 14 14 13 10 9 8 7 7 7 8 9 9 10 10 11 12 14 15 16 15 16 18 18 20 19 18 19 20 20
17 17 17 17 18 18 16 16 17 19 20 21 21 18 17 15 14 13 12 13 13 12 10 10 9 9 8 9 9 10 11 12 13 14 15 15 15 15 17 19 21 21 21 21 21 22 22
23 20 20 19 20 19 17 18 18 19 20 21 22 23 22 19 17 16 15 13 14 13 12 10 11 10 11 11 10 10 11 13 16 17 18 18 18 19 19 21 22 23 24 23 24 24 24
27 25 23 22 22 22 21 21 21 21 22 22 22 23 24 23 21 18 16 16 16 17 16 15 13 12 13 14 15 14 14 15 15 16 18 21 22 22 22 22 24 24 25 24 26 26 27
28 29 27 26 24 22 22 23 24 24 25 26 25 24 24 24 24 23 21 17 17 20 20 18 17 16 15 17 19 19 18 18 19 18 19 20 22 22 23 25 26 27 28 26 26 28 29
31 32 30 30 30 27 27 25 25 26 27 28 27 26 25 25 25 27 26 22 20 20 21 21 20 18 17 19 20 22 22 21 20 22 22 21 22 23 26 26 28 28 29 28 27 29 31
33 34 34 31 32 33 31 29 27 27 29 30 31 30 29 27 27 28 28 27 25 24 22 23 23 23 21 22 22 22 22 22 22 22 22 21 23 27 29 29 30 31 32 31 30 33 35
34 36 36 35 35 34 34 35 34 32 31 32 33 32 31 31 31 30 30 29 30 29 27 23 24 24 24 23 22 22 22 23 24 24 25 25 27 27 27 29 32 32 33 34 35 36 37
41 40 39 37 36 39 36 34 36 37 38 36 34 34 34 33 32 32 31 30 30 30 27 24 24 22 21 21 21 22 23 24 26 27 27 27 28 30 29 31 33 33 36 37 37 37 38
40 40 38 39 39 39 38 41 41 39 35 35 36 37 36 31 31 33 31 29 29 28 30 23 20 19 20 20 21 23 24 26 26 27 30 32 34 33 32 33 34 34 36 38 39 41 42
47 41 40 37 38 35 34 33 32 31 32 35 37 38 37 34 34 35 31 27 27 30 29 25 24 21 21 23 25 26 27 28 31 33 35 37 38 38 36 38 39 39 39 42 44 45 49
39 39 41 38 36 33 31 30 28 31 33 34 36 35 34 32 33 31 31 28 29 27 27 26 24 23 20 23 25 27 30 32 34 37 37 40 40 40 42 42 42 44 45 47 51 51 52
43 42 42 36 30 25 25 29 29 29 32 32 34 37 34 37 31 27 28 28 27 26 28 29 29 30 27 27 27 30 31 34 35 37 41 43 44 43 44 45 47 49 50 50 54 57 59
42 38 30 33 33 28 28 31 31 29 31 36 38 39 41 38 35 33 33 32 32 32 31 32 34 36 33 32 34 34 36 36 34 37 39 42 42 42 44 44 46 49 52 54 58 60 63
38 33 31 24 26 28 26 29 26 31 33 36 36 32 30 34 37 35 31 29 28 31 32 34 36 39 39 38 39 38 38 35 33 34 39 42 46 46 43 44 44 46 49 53 58 62 64
28 29 24 25 26 25 26 28 30 29 30 30 32 32 32 32 33 31 30 29 26 26 31 36 34 37 38 37 35 36 39 41 39 39 40 39 42 44 43 43 45 48 49 50 54 59 61
17 20 23 26 26 27 27 26 26 26 23 25 27 28 31 31 31 29 30 31 29 32 36 37 36 36 35 35 36 37 35 34 36 38 40 40 45 43 45 45 46 47 50 53 56 57 58
27 27 24 26 25 26 26 27 26 29 29 30 31 33 33 33 33 33 32 31 33 34 37 37 36 37 37 39 40 39 39 40 44 45 47 45 50 49 52 51 51 51 50 52 56 59 60
28 25 32 29 27 26 29 30 29 30 28 31 34 34 31 34 33 32 33 35 36 39 39 38 40 40 40 41 42 45 48 50 52 52 51 51 54 53 55 56 56 55 54 54 56 58 57
23 25 26 26 27 29 29 28 28 29 28 29 31 32 32 35 35 37 40 40 40 42 42 43 43 43 46 46 45 48 49 52 54 55 54 56 57 59 58 55 51 49 50 52 57 56 59
26 26 27 26 26 27 29 29 29 30 29 30 34 32 30 33 35 38 40 40 41 43 45 46 48 48 49 49 51 52 53 53 55 56 57 57 59 57 57 53 52 53 55 53 54 56 58
31 30 29 29 30 29 28 29 28 28 29 28 29 31 31 33 35 37 40 42 44 44 46 47 49 52 53 53 54 56 56 57 57 56 54 55 55 56 57 54 54 54 54 57 55 51 54
31 31 29 30 28 27 28 29 29 29 30 29 29 30 31 34 34 35 38 41 43 44 46 48 50 51 51 52 53 54 54 52 51 50 50 49 50 50 51 52 55 55 53 52 53 55 55
32 31 29 30 29 29 29 30 30 30 30 31 30 29 30 32 33 34 38 42 42 42 43 44 44 45 46 48 50 49 47 49 48 50 51 50 51 54 54 54 55 54 54 57 57 56 57
33 32 31 31 30 30 29 30 30 31 31 29 29 30 32 35 34 36 39 41 43 44 45 45 47 48 47 47 45 47 49 49 50 48 47 47 50 53 55 56 57 56 56 58 59 57 55
33 34 32 30 30 30 31 30 31 32 30 30 31 32 36 37 37 39 39 41 42 45 46 47 49 49 47 48 49 49 52 54 56 55 54 56 56 55 58 60 58 56 57 57 58 58 59
34 33 32 31 31 31 32 32 32 32 32 32 35 36 38 40 40 39 40 41 44 46 50 50 50 49 51 53 53 54 54 55 56 58 60 62 62 61 62 64 62 59 59 59 58 58 58
36 33 33 32 32 32 32 33 33 34 33 34 35 39 40 41 40 38 40 43 45 45 52 54 55 56 58 55 55 58 58 58 57 54 54 58 59 62 63 62 61 59 59 58 58 59 61
Wind_Direction
256 266 267 265 279 295 303 306 311 309 314 314 316 323 327 325 331 332 326 324 326 330 325 324 314 304 292 282 282 280 269 260 254 252 249 250 246 242 243 243 242 242 245 241 244 248 248
255 252 257 261 269 280 290 294 301 307 307 310 310 310 312 317 324 325 323 322 318 312 317 311 299 290 280 276 279 272 271 268 262 255 252 252 250 250 251 249 248 240 242 246 246 252 254
252 251 250 255 264 271 282 291 295 300 303 305 306 306 305 307 315 319 318 321 327 317 309 308 291 288 280 274 270 269 268 268 267 263 261 257 254 251 247 249 252 252 251 251 249 252 256
249 256 260 262 264 263 270 282 286 291 291 294 298 302 301 301 309 314 314 312 320 327 312 305 298 284 271 273 269 269 269 268 267 268 267 263 260 259 256 255 255 254 252 253 255 255 255
249 251 260 264 268 269 269 274 282 286 289 291 294 295 301 299 295 302 312 311 312 316 316 307 295 288 269 267 267 270 272 275 273 272 269 265 263 263 263 264 261 259 259 258 258 258 257
252 253 262 260 264 267 271 275 281 286 289 291 292 295 294 296 296 292 294 299 302 308 308 300 298 288 283 271 264 266 268 275 273 275 276 272 266 263 264 262 262 262 263 261 261 261 260
251 251 262 264 257 265 274 278 285 289 290 292 291 290 290 294 292 292 287 287 292 303 308 303 289 287 284 284 279 267 266 271 275 273 277 272 265 263 263 265 264 262 262 261 262 263 264
254 254 258 265 259 262 270 278 286 292 293 290 290 289 289 289 289 288 290 286 290 294 300 301 291 282 285 284 279 276 270 269 268 272 274 265 263 269 273 269 265 265 264 265 263 262 262
253 256 256 263 262 261 268 272 278 286 292 295 291 288 288 288 288 290 289 286 285 290 295 295 290 287 280 278 280 279 274 270 272 272 264 259 271 273 270 269 268 267 268 266 265 265 265
255 253 253 258 260 264 268 272 279 284 289 291 290 287 287 290 290 292 290 289 287 288 292 294 291 286 279 279 279 275 273 272 274 272 264 268 274 272 270 269 267 266 266 266 265 265 267
248 250 254 255 258 263 265 272 278 283 287 289 287 286 287 287 289 294 290 289 290 293 295 294 290 285 281 283 279 276 273 271 268 268 269 274 274 272 274 272 269 265 261 264 265 266 267
252 251 250 250 254 264 270 272 277 280 281 285 283 284 287 288 293 292 288 287 292 295 292 287 284 282 279 278 278 279 274 271 268 269 269 272 273 272 271 270 269 268 266 267 267 268 268
240 248 252 251 259 267 271 273 271 278 282 284 284 283 284 288 291 288 287 285 291 289 287 284 282 283 281 280 278 275 271 270 270 270 271 270 269 270 273 272 271 270 270 269 268 268 271
234 249 246 250 258 260 261 266 281 278 279 279 280 283 289 294 284 287 289 288 287 286 278 278 282 283 286 289 287 283 278 275 275 275 275 273 273 274 272 272 271 268 267 269 272 272 271
240 239 251 247 256 249 261 271 277 282 283 279 280 283 289 287 283 288 287 286 286 280 279 279 281 282 285 287 287 286 284 282 283 279 278 279 278 278 278 278 277 275 273 270 269 269 271
239 238 233 231 262 258 271 278 277 279 282 285 285 286 288 287 285 286 286 283 282 282 286 288 289 287 287 286 285 284 282 285 282 283 282 282 281 280 284 283 284 285 281 281 279 277 277
251 245 248 257 265 269 271 277 278 281 284 286 283 283 287 286 288 287 288 285 278 280 291 293 291 289 289 289 284 280 281 283 285 286 284 284 282 285 287 288 287 288 288 288 287 285 285
265 266 257 263 270 269 268 265 271 281 282 283 284 285 290 289 286 287 285 287 281 286 294 295 291 290 288 289 288 285 285 287 289 287 285 285 284 289 291 294 292 292 293 291 288 290 289
253 253 252 256 261 254 260 267 277 282 279 281 281 284 286 288 288 287 284 285 287 288 293 293 294 294 289 283 284 280 282 285 287 288 290 290 288 289 289 291 292 291 292 291 291 289 288
250 255 254 255 260 266 270 270 270 277 279 276 278 283 288 289 290 292 292 291 292 292 294 293 292 292 288 283 279 281 284 286 289 287 285 282 282 284 287 290 290 289 292 293 294 292 293
250 252 256 259 263 265 273 277 276 272 281 284 283 285 289 293 291 294 294 293 292 291 289 288 287 287 285 284 280 279 281 285 287 287 288 288 288 288 289 289 286 286 288 291 294 296 291
253 256 260 262 268 270 274 274 275 276 276 278 284 289 290 290 291 291 291 291 290 289 289 289 289 289 289 289 288 286 286 289 290 290 291 291 289 288 288 284 286 285 286 292 294 293 292
253 257 263 264 268 270 271 271 272 272 273 275 276 276 280 282 283 285 288 292 292 294 293 294 293 293 293 292 291 289 290 292 294 294 294 291 291 288 286 284 284 284 288 288 290 292 293
256 260 263 266 269 273 275 276 275 271 272 271 270 272 276 280 286 291 292 293 295 298 299 298 295 293 291 290 288 288 290 291 291 290 290 293 295 294 290 284 284 288 289 289 290 294 292
257 259 263 268 271 273 274 273 272 270 268 266 270 276 280 283 287 292 293 295 298 301 301 301 302 301 299 297 295 294 294 292 292 291 292 294 295 296 292 291 289 291 292 295 294 293 294
262 262 264 265 267 269 269 269 270 270 272 276 279 282 284 286 289 293 296 299 301 302 302 305 303 302 302 299 295 292 295 295 293 292 297 300 297 296 296 293 292 292 294 293 292 292 293
263 265 264 264 266 266 269 270 272 273 277 280 283 285 286 289 291 293 299 299 300 303 304 304 301 300 301 298 294 292 292 293 290 285 291 296 299 301 298 295 294 295 294 293 293 291 292
259 262 264 264 263 264 267 270 274 277 281 285 286 287 289 289 293 298 301 303 304 303 303 303 303 301 297 298 298 295 294 297 294 285 287 294 296 297 298 296 296 295 293 292 291 291 290
257 258 261 264 265 267 269 272 275 278 282 284 287 288 291 294 297 303 305 306 306 307 307 307 304 300 297 296 296 298 294 296 300 298 293 295 296 295 294 294 295 293 293 293 293 293 294
Height
5814 5815 5815 5815 5815 5814 5813 5813 5812 5810 5809 5808 5806 5805 5804 5802 5801 5799 5798 5797 5795 5794 5793 5792 5792 5791 5790 5790 5790 5790 5790 5790 5790 5791 5791 5792 5792 5793 5794 5793 5794 5795 5796 5797 5797 5797 5798
5810 5810 5811 5812 5812 5811 5810 5810 5810 5808 5807 5805 5804 5803 5802 5801 5799 5797 5796 5795 5793 5792 5791 5790 5790 5790 5789 5789 5788 5788 5788 5788 5788 5788 5788 5788 5789 5790 5791 5790 5791 5791 5791 5793 5794 5794 5794
5806 5806 5807 5808 5808 5808 5808 5807 5807 5806 5804 5803 5802 5801 5800 5799 5797 5795 5793 5792 5791 5790 5790 5789 5788 5788 5788 5788 5787 5787 5786 5786 5786 5786 5785 5785 5786 5787 5787 5787 5786 5787 5788 5788 5789 5789 5789
5801 5802 5803 5803 5804 5804 5803 5803 5802 5801 5801 5800 5799 5798 5797 5796 5795 5794 5792 5790 5789 5788 5787 5786 5786 5785 5785 5784 5784 5784 5784 5783 5782 5782 5782 5782 5782 5782 5783 5784 5783 5783 5783 5784 5784 5784 5784
5796 5798 5798 5798 5799 5799 5799 5798 5798 5797 5796 5796 5795 5794 5793 5793 5792 5791 5790 5788 5787 5786 5785 5784 5783 5782 5781 5781 5780 5780 5780 5779 5779 5778 5778 5778 5779 5778 5779 5779 5780 5779 5779 5780 5779 5778 5778
5791 5792 5793 5793 5793 5794 5794 5794 5793 5792 5792 5791 5790 5789 5788 5788 5788 5787 5786 5785 5783 5782 5781 5780 5780 5780 5778 5777 5776 5776 5776 5775 5775 5774 5774 5774 5774 5774 5774 5774 5774 5774 5773 5775 5774 5773 5771
5784 5786 5787 5788 5789 5789 5789 5789 5789 5788 5787 5786 5785 5783 5783 5782 5782 5782 5781 5780 5781 5780 5777 5775 5775 5774 5773 5772 5772 5771 5771 5771 5770 5770 5768 5768 5769 5769 5768 5769 5768 5768 5767 5768 5768 5766 5765
5777 5779 5780 5781 5782 5783 5783 5783 5783 5782 5782 5781 5780 5778 5777 5777 5776 5776 5775 5775 5774 5775 5774 5771 5769 5768 5767 5767 5766 5765 5765 5765 5764 5763 5763 5764 5762 5762 5762 5762 5760 5760 5760 5760 5760 5757 5756
5770 5772 5773 5774 5774 5775 5776 5777 5777 5776 5775 5775 5774 5773 5772 5771 5770 5770 5769 5768 5767 5767 5768 5766 5763 5761 5761 5761 5760 5759 5759 5758 5758 5757 5756 5756 5756 5755 5754 5753 5753 5753 5752 5751 5751 5749 5747
5761 5763 5764 5765 5766 5767 5768 5769 5770 5769 5769 5769 5768 5767 5766 5765 5765 5763 5762 5761 5760 5758 5760 5760 5757 5755 5753 5753 5753 5752 5751 5753 5752 5752 5750 5751 5750 5747 5746 5745 5744 5745 5743 5742 5741 5739 5738
5752 5754 5755 5757 5758 5759 5760 5761 5762 5762 5761 5761 5760 5759 5759 5758 5757 5757 5756 5754 5753 5753 5751 5753 5750 5749 5748 5748 5747 5746 5745 5744 5744 5744 5745 5744 5741 5740 5740 5737 5736 5736 5733 5731 5730 5727 5726
5743 5745 5746 5748 5749 5751 5751 5752 5753 5753 5753 5753 5752 5751 5751 5751 5750 5749 5748 5748 5748 5748 5744 5744 5742 5742 5741 5740 5740 5739 5737 5736 5735 5735 5734 5733 5732 5731 5731 5729 5727 5725 5724 5722 5718 5717 5713
5733 5735 5738 5739 5741 5742 5743 5744 5744 5744 5744 5744 5745 5744 5744 5744 5743 5742 5741 5741 5742 5740 5738 5736 5735 5734 5734 5733 5732 5730 5729 5729 5727 5725 5724 5722 5721 5720 5720 5718 5716 5715 5713 5710 5706 5705 5703
5723 5725 5728 5730 5733 5734 5735 5736 5736 5736 5736 5736 5736 5736 5737 5736 5736 5735 5735 5735 5733 5732 5730 5728 5728 5727 5729 5727 5726 5722 5720 5718 5718 5716 5713 5709 5710 5710 5708 5706 5703 5701 5700 5698 5692 5690 5688
5713 5717 5719 5721 5723 5725 5727 5727 5728 5728 5728 5728 5728 5727 5728 5727 5728 5728 5729 5727 5725 5723 5723 5721 5721 5718 5720 5719 5716 5714 5712 5711 5710 5707 5704 5699 5699 5697 5696 5694 5692 5689 5686 5682 5675 5674 5671
5701 5707 5713 5715 5715 5716 5717 5719 5719 5720 5720 5720 5719 5718 5719 5720 5719 5719 5720 5718 5716 5714 5714 5713 5712 5710 5710 5709 5706 5703 5700 5701 5699 5697 5692 5690 5686 5684 5684 5682 5680 5675 5672 5668 5663 5657 5654
5693 5696 5700 5703 5705 5706 5708 5710 5711 5711 5712 5711 5710 5710 5711 5711 5710 5712 5710 5710 5708 5706 5705 5703 5702 5699 5698 5696 5695 5693 5691 5690 5688 5685 5681 5678 5674 5674 5671 5670 5666 5663 5658 5654 5648 5643 5639
5688 5690 5693 5696 5698 5700 5701 5703 5703 5704 5703 5703 5703 5702 5704 5703 5703 5703 5702 5701 5701 5701 5697 5694 5692 5690 5688 5686 5684 5681 5681 5678 5675 5672 5670 5666 5660 5660 5658 5656 5654 5650 5645 5639 5632 5630 5625
5681 5685 5687 5689 5691 5692 5693 5695 5696 5696 5696 5695 5695 5695 5695 5696 5695 5694 5693 5692 5690 5691 5688 5685 5683 5681 5679 5676 5673 5672 5670 5668 5664 5661 5657 5655 5649 5647 5644 5644 5640 5635 5631 5625 5618 5614 5612
5675 5677 5680 5682 5684 5684 5685 5687 5688 5687 5687 5687 5687 5686 5688 5686 5687 5685 5684 5683 5682 5680 5679 5676 5673 5670 5667 5665 5663 5660 5657 5655 5651 5648 5645 5640 5637 5635 5632 5629 5624 5620 5615 5610 5605 5601 5596
5667 5670 5672 5674 5674 5676 5677 5678 5679 5680 5680 5679 5679 5679 5678 5677 5677 5676 5675 5674 5671 5670 5669 5665 5663 5659 5655 5653 5650 5647 5645 5641 5638 5634 5632 5626 5623 5620 5617 5613 5609 5607 5602 5595 5590 5588 5577
5659 5662 5664 5665 5666 5668 5670 5670 5672 5672 5671 5672 5672 5672 5669 5669 5669 5667 5665 5664 5661 5658 5655 5652 5650 5647 5644 5641 5637 5633 5630 5627 5624 5620 5616 5610 5605 5604 5602 5597 5593 5591 5586 5581 5575 5571 5564
5652 5654 5656 5658 5660 5662 5662 5663 5664 5662 5663 5662 5663 5662 5661 5661 5659 5658 5656 5652 5649 5646 5645 5641 5637 5634 5631 5627 5623 5620 5617 5614 5610 5605 5600 5595 5589 5585 5582 5579 5576 5575 5573 5565 5560 5555 5548
5644 5646 5648 5650 5652 5652 5653 5654 5654 5654 5654 5653 5652 5653 5652 5652 5650 5647 5645 5642 5639 5636 5632 5628 5625 5620 5617 5612 5608 5605 5601 5598 5594 5590 5586 5581 5576 5569 5566 5562 5558 5558 5553 5548 5543 5538 5532
5636 5638 5639 5641 5642 5643 5645 5646 5646 5646 5646 5646 5644 5644 5643 5641 5641 5639 5636 5633 5628 5624 5621 5618 5613 5608 5603 5598 5593 5590 5588 5583 5581 5577 5573 5568 5562 5555 5549 5546 5545 5542 5537 5532 5524 5522 5514
5628 5629 5631 5634 5635 5636 5638 5638 5638 5638 5639 5637 5635 5635 5634 5632 5634 5629 5626 5622 5618 5614 5610 5605 5601 5596 5591 5586 5581 5577 5574 5570 5565 5561 5558 5554 5548 5543 5536 5529 5527 5525 5520 5514 5508 5506 5499
5620 5622 5624 5626 5627 5628 5629 5629 5630 5631 5630 5629 5628 5625 5625 5624 5622 5619 5616 5613 5608 5603 5599 5594 5589 5585 5580 5574 5569 5565 5561 5556 5552 5548 5545 5538 5532 5527 5519 5512 5513 5509 5504 5498 5493 5491 5481
5611 5614 5615 5618 5619 5620 5621 5622 5622 5621 5622 5621 5619 5617 5616 5614 5612 5609 5606 5602 5597 5592 5586 5581 5576 5571 5565 5560 5555 5550 5544 5541 5535 5532 5528 5523 5516 5512 5505 5497 5495 5492 5486 5482 5476 5470 5465
5603 5605 5608 5609 5611 5612 5613 5614 5613 5613 5612 5611 5610 5607 5606 5603 5602 5599 5595 5590 5585 5579 5574 5568 5562 5556 5551 5546 5541 5534 5529 5524 5521 5516 5512 5507 5502 5496 5491 5485 5478 5473 5467 5462 5456 5452 5447